FW6705 Weather Reports


Display with metric or nautical units.
time (UTC)temp
F
wind
direction
speed
MPH
gust
MPH
rain 1hr
in
rain 24hr
in
rain mn
in
humidity
%
barometer
mb
20260505173017 54 338 2.0 9.0 0.00 0.00 0.00 39 1009.2
20260505170016 54 315 2.0 9.0 0.00 0.00 0.00 39 1009.1
20260505163017 54 338 3.0 14.0 0.00 0.00 0.00 38 1008.9
20260505153016 53 315 2.0 10.0 0.00 0.00 0.00 39 1008.9
20260505123015 47 0.0 4.0 0.00 0.00 0.00 57 1009.3
20260505120016 47 248 1.0 4.0 0.00 0.00 0.00 57 1009.5
20260505113056 47 203 1.0 4.0 0.00 0.00 0.00 60 1008.5
20260505100016 48 0 1.0 4.0 0.00 0.00 0.00 57 1007.2
20260505093055 49 45 1.0 4.0 0.00 0.00 0.00 56 1006.5
20260505090015 50 0 1.0 5.0 0.00 0.00 0.00 56 1007.0
20260505083016 50 0 2.0 4.0 0.00 0.00 0.00 52 1006.2
20260505080015 51 23 2.0 6.0 0.00 0.00 0.00 54 1004.9
20260505073018 52 0 2.0 6.0 0.00 0.00 0.00 56 1004.8
20260505070015 52 0.0 3.0 0.00 0.00 0.00 59 1003.9
20260505063015 53 0.0 4.0 0.00 0.00 0.00 54 1004.0
20260505060056 54 0.0 4.0 0.00 0.00 0.00 52 1003.5
20260505053019 56 338 1.0 4.0 0.00 0.00 0.00 48 1003.1
20260505040017 61 338 1.0 5.0 0.00 0.00 0.00 42 1002.5
20260505033055 61 270 1.0 8.0 0.00 0.00 0.00 43 1002.1
20260505030016 63 0 1.0 3.0 0.00 0.00 0.00 42 1001.8
20260505023056 65 338 2.0 10.0 0.00 0.00 0.00 40 1001.2
20260505020015 67 315 2.0 8.0 0.00 0.00 0.00 39 1001.1
20260505013016 70 315 2.0 13.0 0.00 0.00 0.00 38 999.7
20260505010015 72 338 2.0 10.0 0.00 0.00 0.00 41 998.2
20260505003016 75 248 2.0 9.0 0.00 0.00 0.00 42 997.3
20260505000015 76 248 2.0 9.0 0.00 0.00 0.00 41 996.5
20260504233017 76 270 2.0 10.0 0.00 0.00 0.00 41 996.6
20260504230057 78 225 3.0 17.0 0.00 0.00 0.00 39 996.8
20260504220017 80 248 4.0 18.0 0.00 0.00 0.00 35 997.3
20260504213018 81 270 5.0 15.0 0.00 0.00 0.00 35 997.4
20260504210017 80 248 5.0 17.0 0.00 0.00 0.00 35 997.8
20260504203017 81 248 4.0 14.0 0.00 0.00 0.00 34 998.3
20260504200018 80 248 5.0 17.0 0.00 0.00 0.00 35 998.4
20260504193017 81 225 4.0 15.0 0.00 0.00 0.00 35 998.8
20260504190056 80 225 4.0 13.0 0.00 0.00 0.00 32 999.2
20260504183017 79 203 4.0 15.0 0.00 0.00 0.00 35 999.5
20260504180017 77 203 5.0 19.0 0.00 0.00 0.00 32 999.7